Lid_Strength_Index
5 4 0 -1 -1 -1 -1 -1 -1 -2 -2 -1 -1 -1 -1 -1 -1 -1 -1 -1 -2 -2 -2 -2 -2 -2 -2 -2 -2 -1 -1 -1 -1 -1 -2 -2 -2 -2 -2 -2 -2 -1 -2
5 4 1 -1 -1 -1 -2 -1 -1 -1 -1 -2 -1 -1 -1 -1 -1 -1 -1 -1 -2 -2 -2 -2 -2 -2 -2 -2 -2 -1 -1 -1 -1 -2 -1 -1 -1 -2 -2 -2 -2 -1 -2
6 5 2 -1 -1 -1 -1 -1 -1 -1 -2 -2 -2 -1 -1 -1 -1 -1 -1 -1 -2 -2 -2 -2 -2 -2 -2 -2 -2 -1 -1 -1 -2 -2 -2 -0 -0 -2 -2 -2 -2 -2 -2
6 5 2 -1 -1 -1 -1 -1 -2 -1 -2 -2 -2 -2 -2 -1 -1 -1 -1 -1 -2 -2 -2 -2 -2 -2 -2 -2 -2 -1 -1 -2 -2 -2 -0 -0 -1 -2 -2 -2 -2 -2 -2
7 6 1 -1 -1 -1 -1 -1 -1 -1 -2 -2 -1 -1 -1 -1 -1 -1 -1 -1 -2 -2 -2 -1 -2 -2 -2 -2 -2 -2 -2 -2 -2 -1 -0 0 1 -1 -2 -2 -2 -2 -2
8 8 1 0 -0 -1 -1 -1 -1 -1 -1 -1 -1 -1 -1 -1 -2 -1 -1 -1 -2 -1 -2 -1 -1 -2 -2 -2 -2 -1 -2 -2 -2 0 0 -1 1 -2 -2 -2 -2 -2 -2
10 10 6 2 1 0 -0 -1 -1 -1 -1 -1 -1 -1 -1 -1 -1 -1 -1 -1 -1 -2 -2 -1 -1 -1 -2 -2 -2 -2 -3 -2 1 1 0 0 -0 -2 -2 -2 -2 -2 -2
12 11 11 8 5 4 2 2 2 1 1 0 -0 -1 -1 -1 -1 -1 -1 -1 -1 -1 -1 -1 -1 -1 -2 -2 -1 -1 -1 -2 0 1 0 0 -2 -2 -2 -2 -2 -2 -2
11 12 12 12 11 8 5 4 4 4 4 4 3 2 1 0 -1 -1 -0 -1 -1 -1 -1 -1 -1 -1 -2 -2 -2 -2 -0 -0 2 2 -0 0 -2 -2 -2 -2 -2 -2 -2
12 12 12 13 12 13 11 7 7 7 7 6 6 5 3 2 2 2 2 1 0 0 -0 -1 -1 -1 -1 -2 -2 -1 0 -0 2 1 0 -0 -2 -2 -1 -1 -2 -2 -2
13 14 14 13 13 12 12 11 11 9 9 8 9 8 5 6 5 6 4 3 3 2 1 1 -1 -1 -1 -1 -1 -1 0 1 1 1 1 -2 -2 -1 -2 -1 -1 -1 -1
14 14 14 14 14 14 13 12 12 12 12 11 10 9 8 8 8 7 7 6 4 3 3 1 0 -1 -0 -0 0 -0 0 0 0 1 0 -2 -2 -1 -1 -1 -1 -1 -1
13 14 15 14 14 13 14 13 12 12 13 12 12 9 8 8 7 8 7 6 7 6 3 2 1 2 0 0 -0 -0 0 0 0 1 0 -2 -2 -1 -1 -1 -1 -1 -1
14 15 15 15 14 14 13 14 14 13 13 13 12 11 9 9 8 8 9 8 9 9 8 6 4 3 2 2 1 1 0 0 -0 0 1 -0 -2 -1 -1 -1 -1 -1 -1
15 15 14 15 15 14 14 14 14 15 14 14 14 12 11 9 9 8 10 8 8 8 8 8 8 6 4 3 3 2 1 1 1 1 1 1 -0 -2 -1 -1 -1 -1 -1
14 14 14 14 15 14 15 14 14 14 14 14 14 14 12 11 10 10 10 10 8 8 7 7 8 9 7 5 5 3 3 2 1 1 1 1 1 -1 -2 -1 -1 -1 -1
14 14 14 14 14 15 15 14 14 14 14 15 15 14 14 14 12 11 10 12 12 11 10 8 7 6 7 6 7 5 4 3 3 2 1 1 1 1 -1 -1 -1 -1 -1
12 14 14 14 14 15 16 15 15 14 15 15 15 15 14 14 14 13 12 13 11 11 12 12 11 10 9 9 9 8 7 6 5 3 1 1 1 -0 1 -1 -2 -2 -1
12 13 15 14 14 15 15 15 14 14 15 15 15 15 15 14 14 14 13 13 12 11 13 13 13 13 13 12 11 10 8 7 5 3 3 2 1 1 1 1 0 -1 -2
12 12 13 14 14 14 14 14 14 15 15 15 16 16 15 14 14 13 13 14 13 13 13 14 14 13 13 13 12 12 11 9 6 4 3 1 2 1 -0 0 1 1 1
13 13 13 13 14 14 14 14 14 15 16 15 16 16 15 14 13 14 13 14 12 14 14 14 14 14 13 13 13 11 10 10 8 6 4 2 1 1 1 0 0 0 0
14 14 14 13 14 14 13 14 14 14 15 15 15 15 14 13 13 14 14 14 14 14 15 14 14 14 14 13 14 13 12 9 7 7 6 4 2 1 1 1 1 1 0
14 14 14 14 14 13 14 14 14 14 15 16 16 16 16 14 13 13 14 14 14 14 14 15 14 15 15 14 14 13 11 10 11 6 5 4 4 4 4 3 1 3 3
14 14 14 13 14 14 14 14 15 15 16 16 16 16 15 14 14 14 14 14 14 14 14 13 13 14 15 15 13 11 11 11 13 12 8 8 8 6 7 7 6 6 6
14 15 14 14 14 14 14 14 15 16 15 15 15 16 15 15 14 13 13 13 13 13 13 14 15 15 13 13 13 12 12 11 12 13 14 12 10 9 9 10 10 9 8
14 16 14 15 15 14 14 15 15 16 16 16 16 16 16 15 15 14 13 14 13 13 13 13 13 13 13 13 12 12 12 13 13 13 13 13 13 12 11 10 10 10 9